Regional Weather Roundup
Issued by NWS State College, PA

Home | Current Version | Previous Version | Graphics & Text | Print | Product List | Glossary Off
Versions: 1 2 3 4 5 6 7 8 9 10 11 12 13 14 15 16 17 18 19 20 21 22 23 24 25 26 27 28 29 30 31 32 33 34 35 36 37 38 39 40 41 42 43 44 45 46 47 48 49 50

000
ASUS41 KCTP 271510
RWRCTP

REGIONAL WEATHER ROUNDUP
NATIONAL WEATHER SERVICE STATE COLLEGE PA
1100 AM EDT THU JUL 27 2017

Note: "fair" indicates few or no clouds below 12,000 feet with no
significant weather and/or obstructions to visibility.

* = STATION THAT DOES NOT REPORT PRECIPITATION /E.G. RAIN...SNOW...ETC/
    THUNDER OR FOG.

PAZ002>004-007>009-013>016-020>023-029>032-271600-
WESTERN PENNSYLVANIA

CITY           SKY/WX    TMP DP  RH WIND       PRES   REMARKS
ERIE           MOSUNNY   80  65  59 MISG      29.96F
MEADVILLE      CLOUDY    73  66  78 VRB5      30.00S
FRANKLIN*        N/A    N/A N/A N/A MISG        N/A
NEW CASTLE     FAIR      75  66  73 W3        30.00S
BEAVER COUNTY  SUNNY     77  64  65 W3        30.00S
BUTLER*        MOSUNNY   75  64  69 W6        30.00S
PITTSBURGH INT PTSUNNY   76  65  68 SW5       29.99S
PITTSBURGH     CLOUDY    76  64  66 VRB3      29.99F
INDIANA*       SUNNY     73  66  78 SW5       30.03S
LATROBE        PTSUNNY   75  68  78 SW12      30.01F
WASHINGTON CO* PTSUNNY   77  68  73 SW3       30.00S
$$

PAZ004>006-010>012-017>019-024>028-033>037-041-042-045-046-049>053-271600-
CENTRAL PENNSYLVANIA

CITY           SKY/WX    TMP DP  RH WIND       PRES   REMARKS
BRADFORD       CLOUDY    71  64  78 W5        30.02F
DUBOIS         CLOUDY    73  62  68 SW3       30.00F
CLEARFIELD     CLOUDY    73  65  75 CALM      30.01F
JOHNSTOWN      CLOUDY    72  65  78 SW7       30.04S
ALTOONA        CLOUDY    73  67  81 CALM      30.02F
STATE COLLEGE  PTSUNNY   70  66  88 CALM      30.01S
WILLIAMSPORT   CLOUDY    75  69  81 NE3       29.98F
SELINSGROVE    CLOUDY    73  68  84 S3        30.00F
FT INDIANTOWN  CLOUDY    69  69 100 NE3       30.01F
CAPITAL CITY   CLOUDY    75  68  78 E5        29.99F
HARRISBURG     CLOUDY    74  69  85 SE5       29.98F
YORK           CLOUDY    76  70  82 S7        29.99F
$$

PAZ038>040-043-044-047-048-054-055-060>062-067>071-271600-
EASTERN PENNSYLVANIA

CITY           SKY/WX    TMP DP  RH WIND       PRES   REMARKS
SCRANTON       LGT RAIN  72  67  84 W8        30.01F
MOUNT POCONO   CLOUDY    66  65  96 W9        30.05F
ALLENTOWN      CLOUDY    73  65  75 SW3       30.02F
QUAKERTOWN*    CLOUDY    72  66  83 SW5       30.03F
READING        CLOUDY    72  68  87 CALM      30.00F
LANCASTER      CLOUDY    75  70  84 S6        30.00F
COATESVILLE    CLOUDY    72  68  88 CALM      30.03F
POTTSTOWN      CLOUDY    72  68  87 SW3       30.03F
BLUE BELL      CLOUDY    72  68  88 CALM      30.03S
DOYLESTOWN     CLOUDY    74  67  78 SW6       30.01F
WILLOW GROVE   NOT AVBL
NORTH PHILA    CLOUDY    78  68  71 SW6       30.02F
PHILADELPHIA   CLOUDY    77  68  73 SW12      30.01F
$$



USA.gov is the U.S. government's official web portal to all federal, state and local government web resources and services.